Content
SEND FEEDBACK

Daily
Averages
Monthly
Summary
Canada

VANCOUVER, BRITISH COLUMBIA


Home > North America > Canada > British Columbia
Elevation: 2 meters     Latitude: 49 11N     Longitude: 123 10W

WEATHER
 
SELECT A DAY
Number of Records: 252,242;   Date Range: 5/15/97 - 9/30/14
 
SHARE

PRINT THIS DATA

[ ← Previous Day ]
WEATHER ALMANAC - 22 JULY, 2014
[ Next Day → ]
[ °F ]   °C
Weather ElementAverageHighLow
Temperature18.4 °C23 °C (9:00 am)14 °C (3:00 am)
Dewpoint12.3 °C14 °C (12:00 am)11 °C (5:00 am)
Humidity67.6 %88 % (3:00 am)46 % (5:00 pm)
Barometer1016.9 hPa1017.9 hPa (10:00 pm)1015.6 hPa (12:00 am)
Wind Speed15.6 km/h24.1 km/h (9:00 am)
Wind Gust31.5 km/h (10:00 am)
Weather ElementAverage
Visibility38 km
Wind DirectionESE (126.6 °)

Weather ElementTotal
Precipitation---
Cooling Degree Days0.2 (Base 18.3)
Growing Degree Days8.5 (Base 10)
Averaged from 29 records on 22 July, 2014
WEATHER CONDITIONS BREAKOUT
WIND DIRECTION BREAKOUT
WEATHER BY HOUR - 22 JULY, 2014
[ °F ]   °C
Local TimeTemperatureDewpointHumidityBarometerVisibilityWind DirectionWind SpeedGust SpeedPrecipitationEventsConditions
12:00 AM16 °C11 °C72 %1015.6 hPa24.1 kmEast (90°)13 km/hClear
1:00 AM15 °C11 °C77 %1015.9 hPa24.1 kmEast (90°)14.8 km/hClear
2:00 AM16 °C11 °C72 %1015.9 hPa24.1 kmENE (70°)13 km/hClear
3:00 AM16 °C12 °C77 %1015.9 hPa24.1 kmEast (80°)14.8 km/hOvercast
4:00 AM16 °C12 °C77 %1016.3 hPa24.1 kmEast (100°)11.1 km/hOvercast
5:00 AM14.4 °C11.7 °C78 %1016.3 hPa24.1 kmEast (100°)16.7 km/hScattered Clouds
5:00 AM14 °C12 °C88 %1016.3 hPa24.1 kmEast (100°)16.7 km/hPartly Cloudy
6:00 AM14 °C11 °C82 %1016.3 hPa24.1 kmESE (110°)13 km/hPartly Cloudy
7:00 AM15 °C12 °C82 %1016.6 hPa48.3 kmESE (120°)13 km/hScattered Clouds
8:00 AM17 °C12 °C72 %1016.9 hPa48.3 kmESE (120°)16.7 km/hScattered Clouds
9:00 AM18 °C13 °C73 %1017.3 hPa48.3 kmSSE (150°)13 km/h27.8 km/hMostly Cloudy
10:00 AM19 °C12 °C64 %1017.3 hPa48.3 kmSouth (170°)14.8 km/hMostly Cloudy
11:00 AM20.6 °C11.7 °C46 %1017.3 hPa45.1 kmSSE (150°)18.5 km/hPartly Cloudy
11:00 AM21 °C12 °C56 %1017.3 hPa48.3 kmSSE (160°)18.5 km/hScattered Clouds
12:00 PM22 °C12 °C53 %1017.3 hPa48.3 kmSSE (150°)18.5 km/hMostly Cloudy
1:00 PM23 °C13 °C53 %1017.6 hPa48.3 kmSouth (180°)18.5 km/hMostly Cloudy
1:35 PM22 °C12 °C53 %1017.6 hPa48.3 kmSE (130°)20.4 km/h31.5 km/hMostly Cloudy
2:00 PM23 °C12 °C50 %1017.9 hPa48.3 kmSE (130°)18.5 km/h29.6 km/hMostly Cloudy
3:00 PM22 °C12 °C53 %1017.9 hPa48.3 kmEast (100°)20.4 km/h29.6 km/hMostly Cloudy
4:00 PM21 °C13 °C60 %1017.9 hPa48.3 kmESE (120°)20.4 km/hMostly Cloudy
5:00 PM20 °C12.8 °C54 %1017.9 hPa45.1 kmSE (130°)22.2 km/hOvercast
5:00 PM20 °C13 °C64 %1017.9 hPa48.3 kmESE (120°)22.2 km/hOvercast
6:00 PM20 °C13 °C64 %1017.6 hPa48.3 kmESE (110°)24.1 km/hOvercast
7:00 PM20 °C13 °C64 %1017.3 hPa32.2 kmESE (110°)16.7 km/h27.8 km/hMostly Cloudy
8:00 PM19 °C13 °C68 %1016.9 hPa32.2 kmESE (110°)14.8 km/hMostly Cloudy
9:00 PM18 °C13 °C73 %1016.6 hPa32.2 kmSE (130°)9.3 km/hScattered Clouds
10:00 PM18 °C14 °C77 %1016.9 hPa32.2 kmSouth (180°)5.6 km/hMostly Cloudy
11:00 PM17.2 °C13.9 °C76 %1016.9 hPa30.6 kmSouth (180°)5.6 km/hOvercast
11:00 PM17 °C14 °C82 %1016.9 hPa32.2 kmSouth (180°)5.6 km/hOvercast
Hourly data recorded from CZBB, located 0 kilometers away from Vancouver, British Columbia







STORIES FROM OUR PARTNERS